Location: Babice
(50.3480°N, 22.9363°E)
Time: 12:08:42
(UTC+00:00)

Intercosmos 25 Rocket - Pass Details

Date: 14 July 2020
Orbit: 434 x 2985 km, 82.6° (Epoch: 07 August)

Event Time Altitude Azimuth Distance (km) Brightness Sun altitude
Rises 01:46:23 0° 352° (N) 2,555 7.3 -6.5°
Reaches altitude 10° 01:48:10 10° 356° (N) 1,778 6.6 -6.3°
Maximum altitude 01:51:53 67° 80° (E) 719 4.2 -5.9°
Drops below altitude 10° 01:57:29 10° 163° (SSE) 2,664 6.5 -5.2°
Sets 02:00:41 0° 166° (SSE) 3,988 7.4 -4.9°
